Temp
80 79 79 79 79 80 80 81 81 79 77 78 77 78 77 74 72 70 70 71 74 76 77 77 78 79 79 78 79 80 80 80 81 82 79 78 78 75 75 76 76 76 77 78 79 79 80 81 81 81 81 81 80 80 80 80 80 81 80 81 81 81 81 79 77 76 77 76 76 76 76 77 76 76
79 79 79 79 80 80 80 80 81 80 78 78 77 77 77 76 74 72 71 72 74 75 76 77 77 76 78 79 79 80 80 79 81 81 79 78 78 75 74 76 76 76 76 76 77 79 80 80 81 81 81 81 80 80 80 80 80 80 80 79 80 80 79 78 76 76 77 76 76 76 76 76 76 76
79 78 79 79 79 80 80 80 81 81 79 78 78 77 76 76 76 74 72 70 75 77 77 78 78 78 78 79 80 79 79 79 81 81 79 78 77 75 76 75 76 76 76 75 76 78 79 80 80 81 80 80 80 80 80 80 80 80 80 81 81 79 78 76 75 75 76 76 76 76 76 76 76 76
79 78 78 78 78 79 79 79 79 80 80 80 79 78 76 76 76 75 73 71 73 77 79 79 79 79 79 79 79 79 80 79 78 80 79 78 76 78 79 75 75 75 75 75 75 75 77 78 79 80 80 80 80 80 79 79 79 79 80 79 79 78 76 75 75 74 75 76 76 75 76 75 76 76
79 78 77 78 78 79 78 79 79 80 81 80 79 78 77 76 76 75 73 72 72 76 78 78 79 79 79 78 79 79 78 78 79 79 79 78 79 79 79 78 74 73 74 74 74 73 74 76 78 79 80 80 80 80 80 79 79 79 79 79 78 76 75 75 75 75 76 76 76 75 76 75 75 75
77 78 76 77 78 78 78 79 79 80 80 80 80 79 78 77 77 76 75 73 73 73 76 77 78 77 79 78 79 77 77 77 78 78 77 78 78 78 78 78 78 72 72 73 73 73 73 74 75 77 79 80 80 80 80 78 77 77 76 72 71 73 74 74 75 75 75 75 75 75 75 75 75 75
77 76 76 77 77 78 77 77 76 78 79 80 79 80 80 79 79 77 76 74 72 73 75 76 76 75 76 77 77 77 78 78 77 77 76 76 76 77 78 77 78 72 71 72 72 71 71 72 73 74 76 77 77 78 77 73 69 70 69 68 68 71 72 72 72 74 75 75 75 75 76 75 75 75
77 76 76 77 77 76 75 74 75 76 77 78 78 79 79 78 79 79 77 76 75 75 74 76 76 76 75 74 75 76 77 76 75 76 76 76 76 77 77 77 77 74 70 71 70 70 70 70 71 71 72 73 74 71 68 67 67 67 66 66 67 68 69 69 69 70 71 72 72 73 73 72 72 72
77 76 77 77 77 75 74 76 76 77 77 78 78 77 78 78 78 79 77 76 75 74 74 75 75 75 75 74 74 74 74 73 73 73 74 74 74 76 77 77 76 73 70 70 69 69 69 69 68 69 69 70 69 66 66 66 66 65 65 65 65 66 66 66 66 67 67 67 67 68 68 68 68 68
77 77 76 77 76 76 76 77 77 76 76 77 76 77 77 78 77 76 76 76 75 75 75 75 74 73 74 72 73 74 74 73 72 72 73 73 74 75 75 76 76 76 75 75 74 70 69 68 67 68 67 67 66 65 65 64 64 64 63 63 64 64 64 65 65 65 65 65 65 65 65 66 66 67
77 77 77 76 76 76 76 75 75 76 76 76 76 76 76 77 76 76 75 74 74 74 75 74 75 75 74 74 73 73 74 74 75 73 72 72 73 73 74 74 75 75 75 73 71 73 73 71 72 68 66 67 66 65 65 64 64 64 62 61 62 63 63 63 63 63 63 62 62 62 62 64 65 67
77 76 76 76 77 77 76 76 76 76 75 75 75 77 76 77 76 75 76 75 75 75 76 75 74 73 72 72 72 72 71 71 71 73 73 72 72 72 72 74 74 74 74 74 74 72 71 71 70 68 67 67 67 66 65 65 66 65 63 61 62 62 62 62 62 62 61 61 60 60 59 60 61 64
76 76 76 77 77 77 77 77 77 77 77 75 74 75 75 75 74 74 73 73 73 72 72 73 73 72 71 71 71 70 70 70 72 73 72 72 73 73 72 73 73 74 74 74 74 73 74 74 74 74 73 72 69 69 68 68 67 66 63 62 62 62 62 61 61 61 61 60 60 59 59 58 58 59
76 76 76 76 78 79 79 78 78 78 78 77 78 75 74 73 72 72 72 72 71 70 71 72 72 72 71 71 71 71 72 72 73 72 71 71 71 71 71 72 74 74 73 73 71 72 73 73 73 73 73 74 73 73 72 72 69 66 63 62 62 62 62 61 61 60 60 59 59 59 58 58 58 58
75 75 76 76 77 78 79 79 79 79 78 77 78 79 78 77 74 71 71 71 71 71 71 73 73 72 72 72 72 71 72 72 72 72 72 71 70 69 68 68 72 74 73 71 70 71 73 73 71 72 72 72 72 72 71 67 65 64 63 62 62 62 61 61 61 60 60 59 58 58 58 58 58 58
74 74 74 75 76 77 77 77 77 78 79 78 78 77 76 75 76 76 74 73 72 71 72 72 73 73 73 73 72 72 71 71 72 72 71 71 70 69 68 68 69 73 74 71 70 71 72 71 71 71 72 72 72 71 67 64 64 63 62 62 61 61 61 61 61 60 60 60 59 59 58 58 58 58
73 73 74 73 74 75 78 78 77 76 77 78 79 77 76 76 76 73 73 75 75 75 73 72 72 73 73 73 73 73 73 73 72 72 70 70 70 70 70 70 70 71 72 71 69 69 71 69 70 69 71 72 70 67 64 63 63 62 61 61 60 61 60 60 60 60 60 59 59 58 58 58 58 58
72 73 73 73 74 74 74 74 74 74 74 74 75 75 75 74 76 76 74 74 74 75 74 72 72 75 76 74 75 75 75 73 72 71 70 71 70 70 69 72 72 72 72 70 69 67 68 68 69 68 68 67 65 63 61 61 61 61 61 60 60 60 60 60 60 60 59 59 58 58 57 57 57 56
73 73 73 73 74 73 72 74 75 73 73 73 73 72 73 74 74 74 74 75 75 75 75 75 75 75 75 75 75 75 75 75 74 74 73 72 72 72 72 72 72 71 71 72 69 66 68 68 67 67 63 62 61 62 61 61 60 60 59 59 59 59 60 60 60 59 59 58 57 56 56 56 56 56
71 71 71 72 73 72 72 74 74 76 73 73 72 72 71 71 72 73 74 69 70 74 74 75 75 75 75 73 73 74 74 73 73 73 73 72 71 70 68 68 70 70 71 71 69 67 67 67 68 61 60 61 59 59 60 60 60 59 59 59 59 59 59 59 59 59 58 58 57 56 56 55 55 56
71 72 72 72 72 72 70 69 64 69 76 72 72 71 70 70 70 72 73 69 69 68 66 64 65 65 64 64 64 63 64 70 72 71 69 69 70 68 67 68 68 69 69 70 71 69 67 65 65 58 59 60 59 59 59 60 59 59 59 58 59 58 58 58 58 58 58 57 57 56 56 55 56 57
70 71 76 73 71 70 68 62 62 67 74 70 70 69 68 69 68 69 70 70 71 68 68 68 67 67 66 67 67 67 66 65 69 70 68 70 70 68 68 67 68 67 68 69 70 67 64 62 62 58 58 59 58 58 59 60 59 59 58 58 58 57 57 57 57 57 57 57 56 56 56 56 57 60
69 69 72 72 70 68 63 58 59 64 71 68 68 67 67 67 67 67 67 67 68 69 70 71 72 73 72 73 72 72 72 71 72 71 71 71 69 68 68 67 67 66 67 69 71 68 62 61 60 60 58 57 56 58 59 59 59 59 59 59 59 58 57 57 56 56 56 56 56 56 56 56 57 59
67 67 66 65 60 59 58 56 56 59 63 69 68 68 67 66 66 68 67 68 68 68 68 68 70 70 71 72 72 71 72 72 72 71 71 71 70 69 68 68 67 66 66 67 70 68 62 63 62 62 62 60 57 55 58 58 59 59 59 59 59 58 58 57 56 55 55 56 56 56 56 56 58 60
66 66 65 64 60 57 57 55 54 55 59 66 68 67 67 68 67 67 67 68 70 68 69 69 69 70 71 71 71 71 70 69 68 68 68 68 68 68 67 66 67 67 67 68 68 68 63 63 61 60 59 58 55 54 55 57 57 58 59 58 58 58 58 58 57 57 54 54 53 53 54 56 57 60
67 65 63 64 61 57 57 55 53 54 57 62 67 67 61 58 60 67 69 68 68 67 67 67 68 70 70 70 69 69 68 67 67 67 66 67 68 67 67 66 65 65 67 67 66 67 63 62 62 59 58 57 55 56 54 55 56 57 58 58 58 58 59 57 57 56 57 58 57 56 56 55 56 56
67 64 63 64 62 56 52 51 53 54 55 63 65 56 56 58 58 63 67 67 67 66 66 66 67 69 70 69 68 67 66 65 66 65 65 65 66 66 67 67 66 65 65 66 67 67 66 63 63 62 60 60 57 56 57 55 55 57 57 58 58 59 59 58 57 57 57 57 57 55 55 55 55 55
63 62 62 63 56 51 49 50 53 54 58 63 56 54 56 58 63 67 67 66 66 67 67 67 68 68 68 68 68 67 66 65 65 66 66 66 67 66 66 67 67 67 67 66 66 67 66 64 63 64 63 61 59 57 56 57 57 56 55 56 58 58 58 59 58 59 59 59 58 59 60 60 61 60
62 60 56 52 51 52 50 51 54 57 61 58 56 56 59 65 68 67 68 68 67 66 67 68 68 68 68 68 67 66 66 66 67 66 66 66 66 66 66 66 67 66 66 66 65 65 65 65 64 63 63 63 63 62 61 58 57 55 56 55 54 57 58 59 58 58 58 58 58 59 59 59 59 60
61 55 54 53 53 54 56 61 64 67 67 65 65 64 65 66 65 65 65 66 67 67 67 67 66 66 66 66 66 67 67 66 65 65 65 65 65 66 65 65 65 66 67 67 66 66 66 67 65 63 62 62 63 62 60 57 56 56 57 57 57 57 58 58 58 58 58 58 58 58 59 60 59 60
63 60 60 61 59 61 63 65 66 66 67 67 67 66 65 65 66 66 65 64 65 65 66 66 65 65 65 66 67 65 65 64 64 65 65 64 64 64 63 63 62 63 65 66 66 67 67 66 66 65 63 63 63 62 60 61 58 56 57 58 57 54 56 57 58 58 58 57 57 57 58 59 60 60
62 65 67 65 65 66 65 65 65 64 66 68 67 66 65 65 65 67 67 66 64 65 66 66 65 65 65 64 64 64 64 64 64 65 65 64 63 64 64 63 62 62 62 62 63 64 65 64 63 63 63 63 61 59 60 60 59 58 57 57 57 57 56 56 56 56 56 56 55 54 56 58 58 58
63 65 65 65 64 64 64 64 63 62 64 64 63 63 63 63 63 63 63 63 64 64 66 65 65 64 65 64 65 64 64 64 64 65 65 65 65 65 65 63 63 62 60 60 61 61 62 62 63 63 62 62 62 61 59 56 57 58 57 56 57 56 56 57 58 57 57 56 55 56 55 57 59 59
62 62 63 64 64 63 62 63 62 62 62 64 65 64 63 63 63 64 64 63 63 65 66 66 67 65 65 65 65 66 65 64 65 65 64 64 64 62 62 62 61 61 61 60 60 59 60 61 61 61 61 61 63 62 61 60 57 58 58 58 57 55 56 57 58 58 57 57 56 55 55 55 57 59
63 64 64 64 64 65 64 64 64 62 62 63 66 67 66 64 63 64 64 62 62 63 64 65 66 66 65 65 64 64 64 64 64 64 64 64 63 63 63 62 61 60 60 59 59 59 60 60 60 59 60 61 61 62 60 62 60 57 58 57 58 58 57 58 58 57 57 56 57 55 54 55 56 58
63 62 64 64 65 64 65 66 66 65 64 65 66 67 66 65 64 63 63 61 63 63 63 64 65 65 65 64 63 62 62 61 61 61 62 63 63 63 63 62 61 60 60 60 59 60 60 60 60 59 59 58 58 57 59 58 59 62 59 58 59 59 59 59 58 57 56 56 56 56 55 55 57 59
63 63 63 64 65 65 66 66 65 66 67 67 67 66 67 67 67 66 64 59 63 63 63 62 64 64 64 64 62 61 61 61 61 61 61 61 61 62 62 61 61 61 61 61 61 61 61 60 60 60 59 58 57 56 59 62 59 59 64 61 60 60 59 58 57 56 57 57 57 57 57 57 58 60
62 63 63 63 64 65 65 65 65 66 66 67 67 66 67 67 67 65 62 63 65 65 63 63 63 62 62 62 62 61 60 60 60 60 60 61 60 60 60 61 62 62 62 61 61 61 62 61 60 60 60 58 57 57 59 61 62 61 59 62 61 61 60 58 57 57 57 58 57 58 59 58 59 62
61 63 64 64 65 65 66 66 66 66 66 66 67 67 67 67 66 65 63 64 66 66 65 64 62 62 60 61 61 62 61 60 59 60 60 60 60 60 60 60 60 61 61 61 61 61 61 60 61 61 61 59 58 59 60 60 60 64 61 56 62 61 60 60 59 60 59 57 58 59 60 62 62 58
62 63 64 65 66 65 65 65 66 66 66 66 67 68 67 67 66 66 65 65 65 65 66 66 64 63 63 62 62 63 62 61 60 61 61 61 61 62 62 62 62 61 60 59 59 60 60 60 61 62 63 63 63 62 63 63 63 62 63 59 56 61 62 61 60 60 59 60 59 57 57 59 59 61
62 62 64 65 65 65 65 65 65 65 66 66 66 66 66 67 66 66 66 66 66 66 66 66 65 65 65 65 64 65 64 64 64 64 63 63 63 63 62 61 61 61 59 58 59 59 60 63 64 62 63 63 63 63 61 60 60 61 61 62 56 55 58 60 62 61 60 60 58 57 57 57 58 59
63 63 64 64 64 65 65 65 66 66 66 66 66 67 67 65 66 66 66 66 65 65 66 66 65 65 65 65 65 64 65 65 65 65 64 64 64 63 62 62 63 61 59 59 60 62 64 63 64 64 64 63 62 60 59 60 61 61 61 62 62 57 55 56 58 59 63 62 59 57 57 57 58 57
64 64 64 64 65 65 65 65 66 66 67 66 66 66 66 67 66 66 66 66 66 66 66 66 66 66 66 66 66 66 66 66 66 66 65 65 64 64 63 63 63 63 63 64 64 63 63 63 63 64 63 63 62 62 60 61 61 61 60 61 61 62 62 55 54 55 55 57 58 61 62 61 57 56
64 64 65 65 65 65 65 66 66 66 66 66 67 66 66 67 66 66 67 67 66 66 67 67 66 66 66 66 66 66 66 66 67 66 66 66 65 65 65 65 63 63 63 63 63 63 63 63 63 64 62 61 62 61 61 61 61 62 62 62 61 60 61 62 62 56 55 54 54 56 57 58 60 61
64 64 65 65 65 65 66 66 66 66 66 66 67 66 66 67 67 68 67 67 67 67 67 67 67 66 67 66 66 66 66 65 66 66 66 66 66 65 65 65 64 63 63 63 62 63 62 62 63 63 62 63 63 62 62 62 62 62 62 61 61 62 62 61 60 59 59 60 58 54 55 56 57 58
MSLP
1017.26 1017.38 1017.46 1017.54 1017.50 1017.38 1017.26 1017.26 1017.30 1017.34 1017.46 1017.62 1017.78 1017.82 1018.22 1018.54 1019.46 1019.90 1019.70 1018.90 1018.54 1017.34 1017.06 1017.18 1016.50 1016.14 1016.10 1016.22 1016.06 1016.14 1016.14 1016.10 1016.18 1016.22 1016.46 1016.62 1016.70 1016.74 1016.86 1016.94 1016.98 1017.06 1017.10 1017.14 1017.18 1017.18 1017.18 1017.18 1017.14 1017.18 1017.26 1017.34 1017.46 1017.54 1017.62 1017.66 1017.66 1017.70 1017.74 1017.78 1017.82 1017.86 1017.94 1018.10 1018.26 1018.38 1018.50 1018.58 1018.70 1018.74 1018.82 1018.86 1018.94 1018.98
1017.26 1017.30 1017.38 1017.38 1017.50 1017.22 1017.26 1017.26 1017.14 1017.18 1017.30 1017.46 1017.62 1017.74 1017.82 1017.94 1018.74 1019.02 1019.58 1019.14 1017.98 1017.66 1016.98 1016.78 1016.58 1016.22 1016.18 1016.02 1016.10 1015.98 1016.02 1015.94 1016.02 1016.14 1016.34 1016.50 1016.54 1016.62 1016.78 1016.86 1016.94 1016.98 1017.02 1017.06 1017.10 1017.10 1017.10 1017.10 1017.06 1017.06 1017.14 1017.22 1017.30 1017.38 1017.46 1017.54 1017.58 1017.62 1017.70 1017.82 1017.82 1017.94 1018.10 1018.22 1018.22 1018.34 1018.42 1018.50 1018.58 1018.66 1018.70 1018.78 1018.82 1018.90
1017.22 1017.42 1017.50 1017.34 1017.38 1017.22 1017.26 1017.18 1017.10 1017.06 1017.18 1017.30 1017.42 1017.58 1017.70 1017.86 1017.94 1018.42 1018.82 1019.58 1017.74 1017.18 1017.42 1016.54 1016.10 1016.14 1016.02 1015.82 1015.90 1015.98 1015.94 1015.94 1015.94 1016.06 1016.18 1016.26 1016.34 1016.50 1016.66 1016.74 1016.86 1016.94 1016.98 1016.98 1016.98 1016.98 1016.98 1017.02 1017.06 1017.06 1017.10 1017.18 1017.26 1017.34 1017.38 1017.42 1017.50 1017.50 1017.58 1017.58 1017.66 1017.94 1018.10 1018.10 1018.22 1018.30 1018.38 1018.42 1018.46 1018.54 1018.58 1018.66 1018.70 1018.78
1017.10 1017.34 1017.50 1017.42 1017.34 1017.18 1017.18 1017.22 1017.14 1017.06 1017.02 1017.02 1017.26 1017.38 1017.58 1017.70 1017.74 1017.94 1018.54 1018.94 1018.46 1017.02 1016.90 1016.50 1016.10 1015.90 1016.06 1015.90 1016.02 1016.02 1015.98 1015.86 1015.90 1015.90 1016.02 1016.10 1016.30 1016.42 1016.50 1016.62 1016.74 1016.82 1016.90 1016.94 1016.94 1016.90 1016.94 1016.98 1017.02 1017.06 1017.10 1017.14 1017.18 1017.26 1017.38 1017.42 1017.46 1017.50 1017.54 1017.62 1017.74 1017.82 1018.02 1018.14 1018.18 1018.38 1018.46 1018.38 1018.50 1018.66 1018.66 1018.78 1018.78 1018.82
1016.98 1017.18 1017.38 1017.34 1017.18 1017.02 1017.26 1017.18 1017.10 1017.02 1016.94 1016.94 1017.06 1017.14 1017.38 1017.62 1017.66 1017.98 1018.42 1018.86 1018.46 1017.26 1016.42 1016.42 1016.22 1015.82 1015.86 1016.18 1015.82 1016.06 1016.06 1016.10 1015.90 1015.82 1015.90 1016.06 1016.26 1016.34 1016.42 1016.46 1016.58 1016.70 1016.74 1016.82 1016.86 1016.90 1016.90 1016.94 1016.98 1017.02 1017.02 1017.06 1017.10 1017.18 1017.26 1017.34 1017.42 1017.50 1017.54 1017.62 1017.66 1017.74 1017.90 1017.98 1018.06 1018.18 1018.22 1018.30 1018.38 1018.50 1018.54 1018.62 1018.74 1018.86
1016.90 1017.02 1017.26 1017.22 1017.10 1017.02 1017.14 1017.06 1017.06 1016.94 1016.90 1016.90 1017.02 1017.06 1017.22 1017.42 1017.50 1017.42 1018.02 1018.30 1018.34 1018.02 1016.74 1016.46 1015.90 1016.02 1015.74 1016.26 1015.66 1016.02 1016.14 1016.06 1015.90 1016.06 1016.06 1016.06 1016.06 1016.22 1016.30 1016.42 1016.38 1016.50 1016.58 1016.66 1016.74 1016.78 1016.86 1016.90 1016.94 1016.94 1016.94 1016.94 1017.02 1017.10 1017.18 1017.30 1017.38 1017.46 1017.54 1017.62 1017.66 1017.74 1017.78 1017.86 1017.94 1018.02 1018.10 1018.18 1018.26 1018.34 1018.46 1018.54 1018.62 1018.70
1016.78 1016.98 1017.06 1017.02 1016.94 1016.94 1017.14 1017.18 1017.30 1017.02 1016.90 1016.70 1016.90 1016.90 1016.86 1017.10 1017.02 1017.06 1017.18 1017.66 1018.10 1017.86 1017.26 1016.46 1016.42 1016.18 1016.10 1016.18 1016.06 1015.78 1015.70 1015.78 1015.90 1016.18 1016.22 1016.22 1016.18 1016.14 1016.18 1016.30 1016.30 1016.38 1016.46 1016.54 1016.62 1016.70 1016.78 1016.82 1016.82 1016.82 1016.82 1016.86 1016.90 1016.98 1017.10 1017.26 1017.38 1017.46 1017.58 1017.66 1017.70 1017.70 1017.74 1017.78 1017.82 1017.90 1017.98 1018.06 1018.14 1018.26 1018.34 1018.42 1018.50 1018.54
1016.70 1016.78 1016.90 1016.82 1016.74 1016.94 1017.22 1017.30 1017.02 1016.78 1016.78 1016.70 1016.70 1016.74 1016.62 1016.70 1016.70 1016.54 1016.74 1016.86 1017.18 1017.22 1017.50 1016.62 1016.50 1016.26 1016.34 1016.14 1015.86 1015.74 1015.82 1016.06 1016.18 1016.14 1016.14 1016.10 1016.26 1016.18 1016.14 1016.18 1016.22 1016.22 1016.34 1016.38 1016.50 1016.62 1016.70 1016.74 1016.74 1016.74 1016.74 1016.78 1016.86 1016.94 1017.10 1017.22 1017.38 1017.50 1017.62 1017.66 1017.70 1017.70 1017.74 1017.78 1017.82 1017.86 1017.94 1017.98 1018.10 1018.18 1018.22 1018.30 1018.38 1018.42
1016.42 1016.54 1016.62 1016.50 1016.50 1016.70 1017.02 1016.82 1016.70 1016.54 1016.62 1016.50 1016.54 1016.66 1016.46 1016.46 1016.30 1016.26 1016.34 1016.50 1016.66 1016.98 1017.18 1016.70 1016.42 1016.18 1016.18 1016.06 1016.02 1015.94 1016.30 1016.38 1016.38 1016.30 1016.34 1016.30 1016.30 1016.26 1016.06 1016.06 1016.02 1016.14 1016.26 1016.34 1016.42 1016.50 1016.58 1016.66 1016.66 1016.70 1016.74 1016.78 1016.86 1016.98 1017.10 1017.26 1017.38 1017.50 1017.58 1017.66 1017.74 1017.78 1017.82 1017.90 1017.90 1017.98 1018.02 1018.10 1018.14 1018.18 1018.26 1018.30 1018.34 1018.34
1016.14 1016.26 1016.26 1016.22 1016.22 1016.34 1016.54 1016.50 1016.38 1016.38 1016.42 1016.34 1016.46 1016.46 1016.34 1016.18 1016.10 1016.22 1016.30 1016.46 1016.66 1016.62 1016.58 1016.58 1016.66 1016.38 1016.38 1016.38 1016.22 1016.02 1016.06 1016.38 1016.66 1016.62 1016.46 1016.34 1016.26 1016.30 1016.34 1016.14 1016.02 1016.06 1016.18 1016.34 1016.38 1016.46 1016.50 1016.54 1016.62 1016.70 1016.74 1016.82 1016.94 1017.06 1017.18 1017.34 1017.38 1017.46 1017.54 1017.62 1017.66 1017.74 1017.78 1017.86 1017.94 1018.02 1018.10 1018.14 1018.22 1018.26 1018.30 1018.34 1018.34 1018.30
1015.90 1015.90 1015.90 1015.90 1015.90 1016.02 1016.06 1016.22 1016.22 1016.18 1016.18 1016.18 1016.22 1016.18 1016.18 1015.98 1016.10 1016.18 1016.18 1016.26 1016.38 1016.42 1016.46 1016.42 1016.26 1016.22 1016.06 1016.14 1016.42 1016.06 1015.86 1015.98 1016.10 1016.50 1016.70 1016.70 1016.26 1016.18 1016.18 1016.26 1016.02 1015.98 1016.06 1016.10 1016.18 1016.22 1016.30 1016.42 1016.54 1016.62 1016.70 1016.78 1016.86 1017.02 1017.14 1017.22 1017.30 1017.42 1017.50 1017.54 1017.62 1017.66 1017.74 1017.86 1017.94 1017.98 1018.02 1018.06 1018.10 1018.14 1018.18 1018.18 1018.10 1018.06
1015.74 1015.62 1015.58 1015.54 1015.54 1015.58 1015.70 1015.82 1015.78 1015.74 1015.94 1015.98 1016.18 1015.98 1015.98 1015.94 1016.06 1016.14 1016.02 1016.18 1016.22 1016.30 1016.30 1016.34 1016.34 1016.22 1016.22 1016.18 1016.10 1016.02 1016.10 1016.38 1016.34 1016.14 1016.34 1016.70 1016.46 1016.30 1016.06 1015.94 1016.14 1016.06 1016.10 1016.22 1016.18 1016.18 1016.26 1016.38 1016.46 1016.58 1016.62 1016.70 1016.78 1016.90 1016.98 1017.10 1017.18 1017.30 1017.38 1017.50 1017.58 1017.66 1017.70 1017.74 1017.74 1017.82 1017.86 1017.94 1018.06 1018.10 1018.10 1018.10 1018.02 1017.90
1015.50 1015.46 1015.34 1015.26 1015.22 1015.22 1015.38 1015.42 1015.26 1015.26 1015.42 1015.78 1016.06 1015.82 1015.78 1015.90 1016.02 1016.10 1016.14 1016.18 1016.30 1016.42 1016.54 1016.54 1016.34 1016.30 1016.30 1016.22 1016.30 1016.42 1016.50 1016.50 1016.38 1016.10 1016.10 1016.30 1016.02 1016.02 1016.10 1015.90 1015.74 1015.86 1016.14 1016.14 1016.14 1016.18 1016.10 1016.30 1016.38 1016.46 1016.62 1016.58 1016.66 1016.74 1016.78 1016.86 1016.98 1017.10 1017.26 1017.38 1017.50 1017.54 1017.54 1017.54 1017.58 1017.62 1017.70 1017.78 1017.86 1017.86 1017.82 1017.82 1017.82 1017.82
1015.26 1015.26 1015.18 1015.02 1014.94 1014.94 1015.02 1015.02 1014.98 1014.98 1015.18 1015.34 1015.30 1015.46 1015.66 1015.78 1015.98 1016.02 1016.14 1016.30 1016.34 1016.46 1016.58 1016.42 1016.34 1016.38 1016.30 1016.14 1016.10 1016.18 1015.98 1015.86 1015.86 1016.10 1016.22 1016.42 1016.22 1016.22 1016.30 1015.98 1015.70 1015.58 1015.86 1016.14 1016.38 1016.18 1015.98 1016.18 1016.34 1016.38 1016.54 1016.42 1016.42 1016.50 1016.62 1016.66 1016.74 1016.94 1017.10 1017.22 1017.30 1017.38 1017.42 1017.46 1017.46 1017.58 1017.66 1017.70 1017.66 1017.70 1017.78 1017.78 1017.66 1017.54
1015.18 1015.14 1015.10 1014.98 1014.90 1014.82 1014.70 1014.62 1014.62 1014.74 1014.94 1015.06 1014.94 1014.94 1014.98 1015.10 1015.62 1016.18 1016.18 1016.10 1016.10 1016.26 1016.30 1016.10 1016.14 1016.18 1016.10 1015.78 1015.62 1015.74 1015.66 1015.66 1015.82 1015.94 1016.02 1016.14 1016.26 1016.50 1016.74 1016.82 1015.98 1015.42 1015.66 1016.10 1016.34 1016.26 1015.90 1016.06 1016.42 1016.38 1016.42 1016.34 1016.34 1016.34 1016.42 1016.54 1016.66 1016.74 1016.86 1016.98 1017.10 1017.18 1017.26 1017.26 1017.34 1017.42 1017.46 1017.50 1017.58 1017.62 1017.58 1017.42 1017.30 1017.34
1015.02 1015.18 1015.14 1015.02 1014.94 1014.74 1014.62 1014.54 1014.58 1014.58 1014.58 1014.62 1014.66 1014.86 1014.94 1014.98 1014.90 1015.06 1015.38 1015.62 1015.82 1015.90 1016.10 1016.06 1015.90 1015.86 1015.78 1015.58 1015.50 1015.62 1015.70 1015.66 1015.70 1015.74 1015.86 1016.02 1016.18 1016.38 1016.54 1016.54 1016.58 1015.66 1015.38 1016.02 1016.30 1016.22 1015.86 1015.94 1016.22 1016.34 1016.26 1016.22 1016.22 1016.26 1016.34 1016.50 1016.62 1016.74 1016.82 1016.90 1016.90 1016.90 1016.98 1017.10 1017.18 1017.22 1017.30 1017.38 1017.46 1017.42 1017.22 1017.02 1017.26 1017.30
1014.94 1014.98 1014.98 1015.02 1014.94 1014.74 1014.42 1014.30 1014.34 1014.46 1014.54 1014.46 1014.46 1014.62 1014.70 1014.66 1014.74 1014.82 1014.78 1014.70 1014.90 1015.06 1015.46 1015.70 1015.70 1015.58 1015.42 1015.54 1015.34 1015.22 1015.30 1015.14 1015.62 1015.70 1015.90 1015.86 1015.90 1015.94 1016.10 1016.02 1015.90 1015.70 1015.34 1015.78 1016.18 1016.30 1015.86 1015.94 1016.18 1016.30 1016.02 1016.02 1016.14 1016.38 1016.58 1016.66 1016.66 1016.70 1016.78 1016.86 1016.82 1016.78 1016.90 1017.02 1017.10 1017.14 1017.26 1017.30 1017.38 1017.26 1017.14 1017.18 1017.30 1017.30
1014.66 1014.66 1014.74 1014.90 1014.86 1014.58 1014.46 1014.34 1014.34 1014.42 1014.54 1014.66 1014.70 1014.74 1014.86 1014.90 1014.66 1014.54 1014.62 1014.66 1014.66 1014.74 1014.98 1015.22 1015.50 1014.98 1014.90 1015.26 1015.02 1014.86 1014.90 1015.34 1015.58 1015.66 1015.78 1015.62 1015.78 1015.82 1015.82 1015.42 1015.42 1015.30 1015.14 1015.74 1016.02 1016.26 1015.94 1015.82 1015.98 1016.22 1016.14 1016.18 1016.42 1016.58 1016.62 1016.54 1016.62 1016.78 1016.90 1016.98 1016.90 1016.86 1016.90 1016.98 1017.02 1017.02 1017.06 1017.26 1017.34 1017.34 1017.30 1017.34 1017.30 1017.26
1014.38 1014.42 1014.50 1014.54 1014.46 1014.50 1014.46 1014.26 1014.22 1014.38 1014.46 1014.62 1014.82 1014.90 1014.94 1014.86 1014.74 1014.62 1014.54 1014.46 1014.42 1014.50 1014.50 1014.66 1014.74 1014.66 1014.58 1014.66 1014.66 1014.70 1014.70 1014.82 1014.86 1014.94 1015.10 1015.14 1015.26 1015.26 1015.10 1015.18 1015.14 1015.26 1015.06 1015.22 1015.70 1016.34 1015.82 1015.62 1015.94 1016.10 1016.38 1016.54 1016.70 1016.78 1016.82 1016.90 1016.94 1017.02 1017.10 1017.06 1016.86 1016.86 1017.02 1017.02 1016.94 1016.94 1017.06 1017.10 1017.14 1017.18 1017.26 1017.30 1017.34 1017.38
1014.26 1014.22 1014.26 1014.34 1014.38 1014.38 1014.42 1014.22 1014.14 1014.10 1014.22 1014.58 1014.86 1014.98 1014.94 1014.90 1014.78 1014.66 1014.42 1014.38 1014.38 1014.34 1014.38 1014.38 1014.42 1014.42 1014.46 1014.46 1014.50 1014.54 1014.62 1014.66 1014.66 1014.66 1014.66 1014.74 1015.02 1015.34 1015.62 1015.74 1015.34 1015.46 1015.06 1015.02 1015.50 1015.94 1015.82 1015.58 1015.78 1016.62 1016.78 1016.74 1016.90 1016.94 1016.98 1017.02 1017.06 1017.10 1017.02 1016.98 1016.90 1016.82 1016.94 1016.82 1016.82 1016.90 1016.94 1017.02 1017.10 1017.14 1017.22 1017.30 1017.42 1017.46
1014.30 1014.22 1014.22 1014.26 1014.30 1014.38 1014.46 1014.46 1014.50 1014.22 1014.10 1014.54 1014.74 1014.94 1015.02 1014.98 1014.94 1014.82 1014.50 1014.42 1014.38 1014.38 1014.38 1014.38 1014.38 1014.46 1014.50 1014.50 1014.46 1014.50 1014.54 1014.58 1014.58 1014.86 1015.18 1015.34 1015.18 1015.54 1015.86 1015.70 1015.58 1015.50 1015.18 1014.98 1014.98 1015.42 1015.78 1015.74 1015.98 1016.78 1016.94 1016.94 1017.06 1017.10 1017.14 1017.10 1017.06 1017.06 1017.02 1016.90 1016.74 1016.82 1016.94 1016.78 1016.78 1016.82 1016.90 1017.06 1017.14 1017.14 1017.18 1017.30 1017.42 1017.50
1014.38 1014.26 1013.98 1014.18 1014.34 1014.46 1014.62 1014.66 1014.54 1014.22 1014.18 1014.62 1014.78 1014.90 1015.06 1015.06 1015.02 1014.78 1014.74 1014.66 1014.46 1014.38 1014.30 1014.26 1014.26 1014.22 1014.30 1014.30 1014.30 1014.34 1014.38 1014.46 1014.50 1014.86 1015.38 1015.10 1015.10 1015.50 1015.58 1015.82 1015.58 1015.42 1015.18 1014.90 1014.66 1015.50 1015.78 1015.98 1016.14 1016.70 1017.18 1017.14 1017.26 1017.22 1017.22 1017.18 1017.18 1017.14 1017.06 1017.06 1017.02 1016.98 1016.94 1016.98 1016.94 1016.86 1016.90 1017.06 1017.14 1017.14 1017.14 1017.26 1017.42 1017.54
1014.50 1014.42 1014.18 1014.22 1014.34 1014.54 1014.78 1014.82 1014.66 1014.42 1014.30 1014.58 1014.74 1014.90 1015.06 1015.26 1015.18 1015.06 1015.02 1015.02 1014.86 1014.66 1014.54 1014.42 1014.26 1014.14 1014.14 1014.14 1014.22 1014.22 1014.18 1014.18 1014.22 1014.38 1014.62 1014.70 1015.06 1015.38 1015.42 1015.42 1015.50 1015.66 1015.30 1014.86 1014.54 1015.46 1015.90 1016.02 1016.22 1016.30 1016.86 1017.06 1017.54 1017.46 1017.34 1017.34 1017.38 1017.26 1017.14 1017.10 1017.14 1017.10 1017.02 1016.98 1016.98 1016.98 1017.02 1017.10 1017.14 1017.14 1017.18 1017.30 1017.34 1017.58
1014.62 1014.58 1014.54 1014.58 1014.78 1014.82 1014.86 1014.78 1014.74 1014.66 1014.58 1014.62 1014.78 1014.86 1015.10 1015.26 1015.30 1014.98 1015.02 1014.94 1014.86 1014.86 1014.86 1014.74 1014.58 1014.50 1014.26 1014.18 1014.14 1014.22 1014.18 1014.14 1014.18 1014.30 1014.34 1014.46 1014.62 1014.94 1015.06 1015.18 1015.30 1015.62 1015.46 1014.94 1014.62 1015.26 1015.78 1015.86 1016.06 1016.26 1016.30 1016.50 1016.78 1017.50 1017.46 1017.50 1017.42 1017.42 1017.30 1017.22 1017.22 1017.26 1017.22 1017.22 1017.22 1017.26 1017.26 1017.26 1017.30 1017.34 1017.34 1017.34 1017.34 1017.58
1014.62 1014.62 1014.58 1014.62 1014.82 1014.94 1014.94 1014.86 1014.86 1014.82 1014.82 1014.70 1014.78 1014.86 1014.98 1014.98 1014.90 1014.86 1014.98 1014.82 1014.74 1014.86 1014.78 1014.70 1014.62 1014.46 1014.30 1014.22 1014.18 1014.18 1014.26 1014.42 1014.42 1014.42 1014.42 1014.46 1014.54 1014.78 1015.06 1015.22 1015.38 1015.42 1015.26 1014.98 1014.78 1015.10 1015.66 1015.94 1016.18 1016.46 1016.50 1016.62 1017.14 1017.54 1017.58 1017.54 1017.50 1017.46 1017.46 1017.42 1017.46 1017.42 1017.34 1017.38 1017.42 1017.54 1017.58 1017.58 1017.58 1017.58 1017.58 1017.54 1017.50 1017.50
1014.50 1014.50 1014.58 1014.58 1014.70 1014.86 1014.86 1014.86 1014.86 1014.86 1014.86 1014.82 1014.70 1014.78 1014.86 1014.90 1014.94 1014.90 1014.78 1014.78 1014.78 1014.82 1014.78 1014.74 1014.62 1014.46 1014.34 1014.34 1014.30 1014.34 1014.42 1014.46 1014.50 1014.50 1014.54 1014.54 1014.54 1014.66 1014.78 1015.06 1015.30 1015.46 1015.38 1014.98 1014.90 1015.02 1015.50 1015.86 1015.90 1016.30 1016.62 1016.70 1017.18 1017.38 1017.58 1017.58 1017.58 1017.54 1017.54 1017.54 1017.54 1017.54 1017.46 1017.54 1017.66 1017.70 1017.70 1017.70 1017.70 1017.74 1017.74 1017.74 1017.74 1017.78
1014.34 1014.46 1014.50 1014.50 1014.58 1014.70 1014.78 1014.78 1014.78 1014.74 1014.78 1014.70 1014.66 1014.78 1014.82 1014.86 1014.86 1014.86 1014.78 1014.70 1014.70 1014.74 1014.70 1014.66 1014.62 1014.42 1014.34 1014.30 1014.34 1014.46 1014.54 1014.50 1014.46 1014.54 1014.58 1014.58 1014.58 1014.66 1014.70 1014.70 1014.82 1015.02 1015.06 1014.94 1014.82 1014.86 1015.02 1015.38 1015.54 1015.74 1016.26 1016.42 1016.74 1017.26 1017.22 1017.34 1017.42 1017.50 1017.54 1017.58 1017.62 1017.62 1017.66 1017.74 1017.78 1017.78 1017.78 1017.78 1017.86 1017.90 1017.86 1017.98 1018.06 1018.06
1014.46 1014.46 1014.50 1014.50 1014.58 1014.66 1014.66 1014.70 1014.70 1014.66 1014.62 1014.58 1014.62 1014.70 1014.70 1014.70 1014.66 1014.58 1014.58 1014.58 1014.54 1014.46 1014.42 1014.46 1014.42 1014.34 1014.22 1014.22 1014.30 1014.38 1014.46 1014.58 1014.50 1014.54 1014.62 1014.66 1014.62 1014.66 1014.74 1014.74 1014.78 1014.82 1014.86 1014.86 1014.78 1014.74 1014.86 1015.14 1015.38 1015.46 1015.62 1016.06 1016.38 1016.70 1016.90 1017.14 1017.18 1017.38 1017.46 1017.50 1017.58 1017.66 1017.70 1017.70 1017.74 1017.74 1017.74 1017.82 1017.82 1017.90 1017.90 1018.06 1018.14 1018.18
1014.58 1014.50 1014.58 1014.66 1014.66 1014.66 1014.62 1014.66 1014.70 1014.66 1014.54 1014.50 1014.46 1014.46 1014.50 1014.46 1014.42 1014.46 1014.46 1014.46 1014.46 1014.54 1014.54 1014.38 1014.22 1014.18 1014.22 1014.22 1014.22 1014.34 1014.46 1014.54 1014.50 1014.66 1014.74 1014.74 1014.78 1014.78 1014.78 1014.90 1014.94 1014.98 1014.94 1014.86 1014.78 1014.78 1014.82 1014.94 1015.18 1015.38 1015.58 1015.70 1015.90 1016.10 1016.22 1016.62 1017.06 1017.30 1017.30 1017.46 1017.62 1017.62 1017.66 1017.70 1017.70 1017.74 1017.90 1017.94 1017.94 1017.90 1017.94 1018.02 1018.18 1018.22
1014.66 1014.70 1014.70 1014.74 1014.78 1014.74 1014.70 1014.66 1014.54 1014.42 1014.34 1014.34 1014.26 1014.30 1014.30 1014.34 1014.46 1014.54 1014.58 1014.50 1014.50 1014.54 1014.42 1014.38 1014.42 1014.38 1014.26 1014.22 1014.26 1014.38 1014.50 1014.66 1014.86 1014.82 1014.94 1014.94 1015.02 1015.02 1015.10 1015.14 1015.18 1015.10 1015.02 1014.98 1014.94 1014.90 1014.82 1014.82 1014.94 1015.22 1015.54 1015.70 1015.70 1015.94 1016.22 1016.54 1016.98 1017.10 1017.02 1017.14 1017.34 1017.54 1017.62 1017.74 1017.78 1017.82 1017.94 1018.02 1018.06 1018.06 1018.06 1018.06 1018.10 1018.14
1014.90 1014.82 1014.82 1014.70 1014.66 1014.58 1014.54 1014.50 1014.42 1014.38 1014.22 1014.18 1014.18 1014.18 1014.22 1014.30 1014.42 1014.38 1014.46 1014.54 1014.62 1014.58 1014.54 1014.58 1014.62 1014.62 1014.42 1014.30 1014.42 1014.62 1014.70 1014.82 1014.82 1014.78 1014.90 1015.02 1015.10 1015.10 1015.14 1015.30 1015.54 1015.46 1015.26 1015.18 1015.14 1015.02 1014.94 1014.94 1015.06 1015.10 1015.42 1015.62 1015.74 1015.82 1016.06 1016.10 1016.42 1017.02 1016.94 1016.94 1017.18 1017.38 1017.46 1017.66 1017.74 1017.78 1017.90 1018.02 1018.14 1018.22 1018.26 1018.18 1018.18 1018.18
1014.98 1014.90 1014.70 1014.78 1014.70 1014.62 1014.66 1014.62 1014.50 1014.34 1014.26 1014.22 1014.26 1014.26 1014.30 1014.30 1014.34 1014.30 1014.26 1014.34 1014.50 1014.50 1014.46 1014.50 1014.58 1014.62 1014.66 1014.82 1014.82 1014.74 1014.82 1014.98 1015.02 1014.94 1015.02 1015.14 1015.30 1015.30 1015.30 1015.46 1015.66 1015.66 1015.58 1015.50 1015.42 1015.30 1015.18 1015.14 1015.22 1015.30 1015.30 1015.42 1015.66 1016.02 1016.14 1016.22 1016.38 1016.66 1016.90 1017.02 1017.06 1017.26 1017.38 1017.50 1017.66 1017.86 1018.02 1018.18 1018.38 1018.50 1018.46 1018.34 1018.26 1018.30
1015.06 1015.02 1014.94 1014.94 1014.90 1014.82 1014.66 1014.58 1014.54 1014.54 1014.50 1014.42 1014.38 1014.34 1014.38 1014.38 1014.34 1014.38 1014.50 1014.66 1014.66 1014.62 1014.58 1014.70 1014.78 1014.86 1014.90 1014.98 1014.98 1015.02 1015.18 1015.22 1015.26 1015.22 1015.26 1015.26 1015.26 1015.30 1015.30 1015.50 1015.62 1015.66 1015.78 1015.78 1015.70 1015.58 1015.50 1015.42 1015.38 1015.38 1015.46 1015.50 1015.54 1015.70 1016.06 1016.46 1016.62 1016.62 1016.70 1016.90 1016.98 1017.26 1017.38 1017.34 1017.42 1017.70 1017.90 1018.18 1018.34 1018.38 1018.46 1018.42 1018.30 1018.34
1015.06 1015.02 1015.02 1014.94 1014.86 1014.78 1014.74 1014.66 1014.62 1014.54 1014.54 1014.46 1014.38 1014.38 1014.46 1014.50 1014.46 1014.42 1014.50 1014.62 1014.70 1014.66 1014.62 1014.62 1014.66 1014.78 1014.86 1014.98 1014.98 1015.02 1015.14 1015.26 1015.26 1015.26 1015.22 1015.30 1015.30 1015.54 1015.66 1015.70 1015.78 1015.70 1015.74 1015.82 1015.78 1015.82 1015.78 1015.70 1015.62 1015.66 1015.66 1015.74 1015.74 1015.82 1015.90 1016.06 1016.38 1016.58 1016.62 1016.78 1016.98 1017.26 1017.38 1017.34 1017.42 1017.58 1017.74 1017.78 1017.98 1018.30 1018.38 1018.42 1018.38 1018.34
1015.06 1015.06 1015.06 1014.94 1014.90 1014.74 1014.66 1014.62 1014.50 1014.46 1014.50 1014.46 1014.42 1014.38 1014.42 1014.54 1014.54 1014.54 1014.50 1014.54 1014.66 1014.70 1014.78 1014.74 1014.70 1014.74 1014.78 1014.90 1014.94 1015.02 1015.10 1015.22 1015.26 1015.30 1015.38 1015.50 1015.58 1015.62 1015.66 1015.70 1015.78 1015.78 1015.82 1015.82 1015.90 1015.94 1015.86 1015.86 1015.78 1015.90 1015.94 1015.94 1015.98 1016.02 1015.98 1015.98 1016.22 1016.54 1016.66 1016.82 1016.82 1016.98 1017.22 1017.26 1017.38 1017.54 1017.66 1017.78 1017.90 1018.10 1018.22 1018.30 1018.30 1018.26
1014.98 1015.06 1015.02 1014.90 1014.78 1014.70 1014.66 1014.46 1014.38 1014.42 1014.42 1014.42 1014.42 1014.38 1014.46 1014.50 1014.54 1014.58 1014.50 1014.46 1014.58 1014.70 1014.78 1014.78 1014.78 1014.82 1014.90 1014.98 1015.10 1015.26 1015.34 1015.46 1015.58 1015.66 1015.66 1015.70 1015.66 1015.66 1015.58 1015.66 1015.70 1015.74 1015.78 1015.82 1015.86 1015.90 1015.86 1015.90 1015.82 1015.86 1015.90 1016.06 1016.14 1016.18 1016.10 1016.02 1016.02 1016.14 1016.42 1016.58 1016.74 1016.86 1016.98 1017.14 1017.34 1017.54 1017.74 1017.82 1017.86 1017.90 1017.94 1017.86 1017.78 1017.86
1014.82 1014.86 1014.94 1014.86 1014.58 1014.54 1014.50 1014.38 1014.38 1014.34 1014.30 1014.26 1014.30 1014.38 1014.38 1014.34 1014.26 1014.30 1014.30 1014.46 1014.46 1014.58 1014.66 1014.74 1014.78 1014.82 1014.86 1015.02 1015.22 1015.34 1015.46 1015.54 1015.62 1015.70 1015.74 1015.78 1015.78 1015.74 1015.74 1015.78 1015.70 1015.70 1015.74 1015.74 1015.74 1015.78 1015.74 1015.78 1015.74 1015.78 1015.86 1016.02 1016.10 1016.22 1015.98 1015.94 1016.02 1015.98 1015.90 1016.10 1016.38 1016.54 1016.78 1017.10 1017.34 1017.58 1017.54 1017.54 1017.66 1017.62 1017.54 1017.50 1017.46 1017.42
1014.62 1014.62 1014.74 1014.70 1014.54 1014.38 1014.34 1014.34 1014.30 1014.26 1014.18 1014.18 1014.22 1014.26 1014.22 1014.14 1014.14 1014.26 1014.42 1014.46 1014.38 1014.50 1014.66 1014.70 1014.74 1014.82 1014.90 1014.98 1015.14 1015.34 1015.46 1015.58 1015.66 1015.74 1015.74 1015.74 1015.74 1015.86 1015.86 1015.86 1015.74 1015.66 1015.66 1015.74 1015.74 1015.70 1015.62 1015.62 1015.70 1015.70 1015.70 1015.90 1015.98 1015.90 1015.82 1015.82 1015.82 1015.78 1015.82 1015.86 1016.06 1016.34 1016.58 1016.90 1017.18 1017.22 1017.34 1017.38 1017.42 1017.46 1017.54 1017.62 1017.50 1017.38
1014.46 1014.42 1014.46 1014.38 1014.26 1014.22 1014.18 1014.10 1014.10 1013.98 1013.98 1014.06 1014.06 1014.02 1013.98 1014.02 1014.10 1014.18 1014.30 1014.30 1014.26 1014.38 1014.54 1014.66 1014.74 1014.78 1014.82 1014.90 1014.98 1015.10 1015.30 1015.46 1015.58 1015.62 1015.70 1015.70 1015.70 1015.78 1015.86 1015.86 1015.86 1015.78 1015.70 1015.70 1015.70 1015.66 1015.70 1015.66 1015.58 1015.54 1015.54 1015.66 1015.66 1015.62 1015.70 1015.74 1015.66 1015.50 1015.62 1015.78 1015.78 1016.10 1016.34 1016.50 1016.62 1016.74 1016.94 1017.18 1017.30 1017.34 1017.46 1017.46 1017.46 1017.50
1014.02 1014.14 1014.10 1014.06 1013.94 1013.90 1013.90 1013.90 1013.86 1013.82 1013.86 1013.78 1013.74 1013.66 1013.70 1013.74 1013.86 1013.98 1014.10 1014.14 1014.22 1014.26 1014.34 1014.46 1014.54 1014.70 1014.78 1014.82 1014.90 1014.98 1015.10 1015.10 1015.14 1015.26 1015.42 1015.50 1015.58 1015.58 1015.58 1015.62 1015.66 1015.66 1015.78 1015.82 1015.78 1015.70 1015.74 1015.66 1015.50 1015.34 1015.30 1015.26 1015.34 1015.46 1015.46 1015.54 1015.54 1015.62 1015.58 1015.70 1015.74 1015.74 1015.86 1016.14 1016.34 1016.42 1016.62 1016.70 1016.98 1017.34 1017.46 1017.54 1017.54 1017.42
1013.70 1013.82 1013.74 1013.70 1013.66 1013.66 1013.62 1013.62 1013.66 1013.70 1013.66 1013.54 1013.50 1013.50 1013.46 1013.46 1013.54 1013.62 1013.62 1013.74 1013.90 1014.06 1014.18 1014.26 1014.38 1014.46 1014.46 1014.54 1014.66 1014.70 1014.78 1014.82 1014.90 1014.98 1015.06 1015.14 1015.22 1015.30 1015.38 1015.54 1015.58 1015.66 1015.78 1015.82 1015.78 1015.78 1015.58 1015.30 1015.18 1015.22 1015.34 1015.38 1015.46 1015.54 1015.54 1015.54 1015.46 1015.38 1015.46 1015.46 1015.66 1015.78 1015.74 1015.78 1015.94 1016.14 1016.22 1016.46 1016.78 1017.02 1017.14 1017.22 1017.26 1017.38
1013.18 1013.26 1013.26 1013.34 1013.38 1013.26 1013.30 1013.26 1013.30 1013.42 1013.42 1013.38 1013.34 1013.26 1013.22 1013.30 1013.26 1013.22 1013.42 1013.58 1013.70 1013.78 1013.90 1014.02 1014.10 1014.18 1014.26 1014.30 1014.42 1014.54 1014.58 1014.54 1014.58 1014.66 1014.78 1014.86 1014.98 1015.10 1015.26 1015.34 1015.34 1015.50 1015.70 1015.66 1015.58 1015.38 1015.22 1015.26 1015.22 1015.18 1015.30 1015.46 1015.50 1015.54 1015.46 1015.30 1015.26 1015.26 1015.30 1015.34 1015.42 1015.62 1015.78 1015.82 1015.82 1015.86 1015.90 1016.14 1016.50 1016.82 1016.98 1017.14 1017.30 1017.30
1012.62 1012.78 1012.86 1012.86 1012.94 1012.90 1012.90 1012.90 1012.94 1013.02 1013.06 1013.06 1013.10 1013.06 1013.10 1013.14 1013.18 1013.26 1013.22 1013.30 1013.38 1013.54 1013.62 1013.70 1013.74 1013.86 1013.94 1013.98 1014.10 1014.18 1014.26 1014.30 1014.30 1014.34 1014.42 1014.54 1014.66 1014.78 1014.94 1014.98 1015.02 1015.10 1015.22 1015.06 1014.98 1015.10 1015.18 1015.18 1015.22 1015.18 1015.22 1015.30 1015.30 1015.26 1015.22 1015.10 1015.14 1015.18 1015.26 1015.26 1015.26 1015.38 1015.50 1015.70 1015.86 1015.94 1015.94 1015.90 1015.86 1015.82 1015.94 1016.10 1016.54 1016.62
1012.10 1012.18 1012.26 1012.38 1012.46 1012.50 1012.50 1012.54 1012.62 1012.74 1012.78 1012.78 1012.78 1012.86 1012.90 1012.94 1012.94 1012.94 1012.98 1012.98 1013.10 1013.14 1013.14 1013.26 1013.38 1013.54 1013.62 1013.66 1013.78 1013.94 1013.98 1013.90 1013.90 1014.06 1014.14 1014.18 1014.26 1014.38 1014.42 1014.54 1014.70 1014.82 1014.86 1014.94 1014.94 1014.98 1015.02 1015.10 1015.10 1015.10 1015.18 1015.18 1015.10 1015.18 1015.06 1015.02 1015.02 1014.94 1014.94 1014.98 1015.14 1015.34 1015.34 1015.42 1015.62 1015.86 1015.98 1015.98 1015.90 1015.78 1015.70 1015.62 1015.50 1015.46
1011.58 1011.66 1011.70 1011.78 1011.94 1012.02 1012.06 1012.14 1012.30 1012.42 1012.50 1012.54 1012.62 1012.62 1012.58 1012.66 1012.66 1012.62 1012.74 1012.82 1012.82 1012.78 1012.90 1012.98 1013.06 1013.14 1013.22 1013.34 1013.50 1013.62 1013.46 1013.50 1013.66 1013.70 1013.74 1013.82 1013.86 1014.02 1014.14 1014.26 1014.38 1014.50 1014.58 1014.58 1014.78 1014.78 1014.86 1014.90 1014.90 1014.98 1015.06 1014.98 1014.94 1014.98 1014.86 1014.86 1014.78 1014.78 1014.82 1014.94 1014.94 1014.94 1014.94 1015.14 1015.42 1015.46 1015.50 1015.34 1015.26 1015.46 1015.54 1015.62 1015.58 1015.54
Wind_Speed
3 3 4 4 3 3 3 3 3 3 3 3 3 3 4 4 2 2 2 3 3 2 3 2 1 4 4 4 4 5 6 6 8 5 4 3 3 5 7 7 5 4 2 1 3 5 7 8 9 9 10 10 10 10 11 11 11 10 11 12 11 11 10 9 7 7 9 10 11 11 11 10 9 10
3 3 3 3 3 3 3 3 4 3 3 3 3 4 3 3 5 4 3 4 3 3 2 3 3 3 5 4 4 4 5 7 8 5 4 4 4 6 7 6 5 4 3 1 2 5 6 7 9 9 9 9 10 10 10 9 11 9 11 10 10 9 8 4 4 6 8 9 9 9 9 8 8 9
3 3 4 3 4 3 4 4 4 3 2 3 2 3 3 4 5 4 3 2 3 3 4 4 4 3 4 4 4 4 4 5 7 5 5 5 6 8 6 7 5 5 4 3 3 4 5 5 6 7 7 8 8 8 8 9 9 9 9 9 8 5 5 3 5 4 4 6 8 8 8 8 8 8
3 4 4 4 4 3 3 3 3 3 3 3 3 3 3 4 4 3 3 5 7 3 4 4 3 4 3 4 5 6 5 3 8 5 5 5 6 5 4 6 7 6 5 4 4 3 3 4 5 7 7 7 7 7 7 7 7 7 7 7 7 5 5 3 6 5 7 6 5 6 7 8 7 6
4 4 4 4 5 4 4 4 3 3 3 3 3 3 3 4 3 4 4 5 7 5 3 5 4 1 3 4 6 6 6 6 6 6 5 5 5 4 4 4 6 7 7 6 5 4 4 3 3 6 7 7 7 7 6 6 6 6 7 6 5 4 4 5 6 7 6 6 6 5 6 5 6 6
3 4 4 5 5 4 5 5 5 4 4 4 3 3 4 4 4 5 5 6 4 7 3 3 2 2 3 4 4 7 7 8 6 6 4 4 4 4 4 4 4 8 8 7 6 6 5 4 4 3 3 6 6 5 6 1 1 2 1 4 4 3 6 5 5 6 6 6 6 6 6 6 7 7
3 4 4 5 4 3 4 3 4 5 5 3 4 5 3 4 5 5 7 5 5 6 5 3 3 2 3 5 4 7 7 5 5 7 5 4 3 3 4 4 3 6 7 8 7 6 5 5 5 5 5 3 3 3 4 5 4 5 4 4 4 3 1 4 6 6 6 6 6 6 6 6 6 8
4 5 4 5 5 2 5 6 6 5 6 4 4 5 5 5 6 5 6 7 6 4 4 3 2 1 3 5 3 4 3 3 4 5 4 3 3 3 4 4 4 5 7 7 7 7 6 6 5 6 6 6 7 7 7 6 6 6 7 5 4 3 1 1 1 2 2 2 2 2 3 3 4 5
5 5 5 5 4 4 7 6 5 4 5 4 4 5 4 4 5 4 5 6 5 5 5 3 1 3 3 3 3 3 4 2 2 2 4 4 5 6 4 3 3 4 6 7 7 6 7 7 7 6 6 6 7 7 7 7 6 6 5 5 5 3 2 1 0 1 1 2 2 3 3 4 5 5
5 5 5 5 4 5 5 5 4 3 5 4 4 5 5 5 4 3 3 2 4 5 5 4 2 4 4 3 3 4 5 5 4 4 3 3 4 5 6 6 4 3 3 3 3 4 5 6 6 6 5 6 6 6 6 5 5 5 5 5 5 4 3 2 2 2 3 3 3 4 5 6 6 6
5 5 5 5 5 6 6 5 5 4 5 4 6 5 5 5 3 3 3 4 5 5 5 3 4 3 5 4 4 4 5 5 6 6 5 5 5 5 7 7 5 4 4 4 3 4 4 4 5 5 6 6 7 6 7 6 6 5 6 5 5 4 3 3 3 3 4 5 6 7 7 7 7 7
6 5 5 5 5 6 5 5 5 5 6 4 5 4 4 4 4 4 4 3 4 4 4 3 3 3 4 3 1 1 3 3 5 6 6 6 6 6 6 7 6 5 5 6 5 4 4 4 4 5 5 5 6 7 7 7 7 7 6 5 5 5 5 5 5 5 5 5 5 5 6 7 7 7
7 5 5 5 5 5 6 8 9 8 7 4 5 5 4 4 4 2 2 3 3 3 2 2 2 2 3 3 2 3 4 7 5 3 6 7 6 4 4 5 5 5 5 5 5 6 7 7 7 6 6 5 7 7 7 7 9 8 6 6 5 5 5 5 5 5 4 4 4 5 6 6 6 6
6 4 4 4 9 10 9 11 11 12 10 9 7 5 3 3 2 3 2 3 2 1 3 4 4 4 4 4 4 4 5 4 2 2 4 5 4 3 5 6 5 6 6 6 6 5 4 6 6 5 7 5 6 5 6 4 5 7 8 7 6 6 5 5 4 3 3 4 5 5 5 6 7 7
5 4 4 4 6 7 6 6 10 11 9 10 10 9 11 8 5 3 5 6 5 4 5 5 4 5 6 5 3 4 3 2 4 5 5 5 3 4 4 5 1 4 6 5 4 5 5 5 6 5 6 5 5 5 4 6 7 7 8 7 6 5 5 4 4 4 5 6 4 4 5 7 9 9
2 3 4 4 4 4 4 4 5 7 7 8 7 5 1 3 7 9 8 6 5 5 6 7 6 5 6 6 3 4 3 5 4 5 4 5 5 5 5 4 4 1 5 4 4 5 3 5 5 5 5 5 5 4 4 7 6 6 6 6 6 6 6 5 5 5 5 4 3 4 7 10 6 8
4 4 3 3 5 5 6 5 3 3 3 4 6 6 6 7 9 7 8 9 7 6 7 7 7 7 7 7 5 3 3 2 3 3 4 5 5 6 6 6 5 3 5 4 4 5 3 5 5 5 4 2 2 3 5 4 5 5 5 5 5 5 5 5 4 4 4 5 4 6 7 6 5 6
3 3 2 3 4 2 2 1 1 1 3 2 2 2 4 5 6 6 7 6 8 8 6 7 7 7 6 7 6 3 3 3 5 4 6 5 5 6 7 5 3 2 6 4 3 3 3 4 4 5 2 3 4 4 4 4 2 3 2 1 1 3 3 4 3 3 5 1 1 2 1 2 3 4
2 3 4 5 5 4 3 3 4 3 3 2 2 2 3 4 3 3 3 4 5 6 6 6 8 8 7 8 8 5 4 5 5 3 4 3 5 5 4 4 3 2 4 4 3 3 1 3 4 1 4 4 4 3 5 6 6 6 4 3 2 1 0 2 3 3 2 4 4 5 5 6 7 8
2 2 3 3 4 4 3 4 4 4 4 3 3 3 3 2 3 3 1 3 4 4 5 6 7 6 5 5 6 5 5 5 4 4 4 3 2 3 4 5 2 3 4 5 5 3 2 3 3 3 3 4 3 2 3 5 5 4 4 2 1 3 4 4 4 4 4 5 7 8 9 10 11 12
2 2 2 3 3 3 3 1 4 6 7 4 5 4 3 2 1 2 1 3 4 3 4 5 6 6 6 6 6 6 5 4 3 3 3 4 3 3 5 5 4 3 3 4 6 4 2 1 3 4 3 2 2 2 2 3 4 3 3 5 6 1 3 4 5 5 5 6 9 10 12 13 14 14
1 3 3 3 2 3 2 4 5 3 5 4 4 3 1 2 3 3 3 3 2 2 4 3 6 4 3 3 4 5 4 4 4 4 4 2 2 4 4 4 1 0 2 4 5 2 1 2 3 4 3 3 2 2 2 3 4 4 2 2 3 3 3 4 5 6 6 8 10 12 14 14 12 9
1 1 3 3 4 4 4 4 5 6 3 3 2 2 1 2 4 3 4 5 5 5 5 4 6 4 5 4 3 3 2 4 4 4 4 3 3 4 3 3 2 2 1 1 5 3 2 3 1 4 3 0 1 2 2 2 3 2 1 2 3 5 4 4 5 5 6 8 10 12 12 11 10 8
2 1 2 4 6 5 4 4 4 5 4 3 3 2 2 2 4 2 3 4 4 4 3 4 3 4 4 4 2 1 2 4 5 3 0 2 3 5 4 2 2 3 0 1 3 2 2 2 2 0 0 1 2 1 1 1 2 2 1 2 3 5 6 5 4 3 5 7 9 9 9 9 9 9
3 3 3 2 5 3 3 3 4 4 4 2 2 2 2 3 2 2 3 4 5 3 4 4 5 4 3 2 1 2 4 4 4 5 6 6 5 3 3 3 2 0 1 2 2 2 1 3 3 2 2 3 2 2 1 1 1 1 1 2 2 2 3 3 5 5 6 7 7 8 6 5 4 7
3 2 2 2 3 3 4 3 4 2 2 1 2 1 1 3 3 3 4 4 4 4 4 4 4 4 3 3 2 3 4 4 4 5 6 5 6 5 5 4 2 2 1 3 2 2 4 3 5 4 3 3 1 2 2 2 1 1 2 2 2 2 3 4 4 5 5 5 5 4 5 7 9 8
2 1 1 2 5 4 3 2 1 1 1 3 1 1 2 3 4 4 4 4 4 4 4 4 3 4 4 4 2 3 3 3 5 5 4 4 4 5 5 5 4 3 1 3 3 2 4 2 4 5 4 3 3 3 2 2 2 2 2 2 2 2 3 4 5 5 4 5 5 8 9 10 11 12
1 2 2 2 5 4 3 2 1 1 2 2 4 4 5 5 4 3 3 3 3 3 3 3 3 4 2 2 3 3 4 3 5 5 4 3 3 3 3 4 4 4 3 2 3 2 3 3 3 3 4 6 4 4 3 2 2 4 3 2 2 2 3 4 4 5 5 5 5 4 4 6 6 7
2 2 2 5 4 3 2 2 3 4 4 4 4 4 4 4 1 1 2 2 3 3 3 4 4 2 1 2 5 5 4 4 5 5 3 3 3 3 4 4 4 4 2 3 3 2 1 3 3 3 3 4 4 2 3 3 4 4 5 4 2 3 3 3 4 4 5 3 3 3 3 4 6 4
4 3 4 4 4 5 4 2 2 1 2 3 3 3 2 1 1 1 1 2 2 3 4 2 4 2 2 4 5 5 4 4 4 3 3 4 3 2 1 1 4 4 4 4 4 2 1 1 3 4 3 2 2 3 3 4 3 4 6 5 3 4 4 4 4 4 6 6 3 3 2 3 4 5
3 3 3 2 3 2 2 3 2 2 1 1 1 1 1 2 2 2 2 2 2 2 3 4 3 3 4 5 5 4 4 3 2 1 2 1 1 1 1 2 2 2 4 4 4 5 2 2 2 3 4 3 2 2 3 2 3 5 5 5 6 4 5 6 5 6 5 3 3 2 2 2 3 3
3 3 3 2 2 2 2 1 0 1 0 1 1 0 1 1 1 3 3 4 2 2 3 3 3 3 3 3 3 3 3 3 2 2 1 1 1 1 1 1 1 1 2 3 4 5 5 4 2 1 1 3 3 2 3 2 2 4 5 5 5 2 6 7 7 4 3 3 3 2 2 3 3 3
1 2 1 1 0 1 1 0 1 1 1 1 0 0 0 1 1 1 2 2 2 2 2 2 1 2 2 2 2 3 3 3 2 1 2 2 2 1 1 1 1 1 1 1 2 4 4 4 4 3 2 2 2 5 5 3 2 3 5 5 6 4 6 7 7 6 6 5 4 4 4 3 2 3
1 2 2 2 2 1 1 1 1 2 2 2 1 1 1 1 0 0 1 1 1 1 1 1 1 2 2 2 1 2 3 3 3 2 2 3 2 1 0 1 1 2 2 2 2 2 2 3 4 4 5 4 4 3 1 1 3 4 3 4 5 4 5 6 7 6 7 5 5 4 3 3 3 3
2 3 3 3 2 2 1 2 2 2 2 3 2 2 1 1 1 1 1 1 1 1 1 1 1 2 3 3 3 3 4 4 3 3 3 1 1 1 0 1 2 2 1 2 2 2 2 2 2 3 3 3 2 2 3 2 2 3 3 3 4 4 5 6 6 5 6 3 4 4 3 2 3 4
3 2 4 3 3 2 2 3 2 2 2 2 2 2 2 2 3 3 2 2 2 2 1 1 0 0 0 1 2 2 2 2 2 1 2 1 2 2 2 2 2 2 1 1 1 2 2 1 1 1 1 1 1 1 0 3 2 4 4 4 5 5 5 5 6 4 4 4 4 4 5 5 4 4
4 3 3 4 3 3 3 2 2 3 3 3 3 3 3 3 3 3 2 3 2 2 1 1 1 1 1 1 1 1 1 1 1 1 1 1 1 2 3 2 1 2 1 1 1 2 2 2 1 1 1 1 1 1 1 1 1 3 4 4 5 6 6 6 6 5 6 5 5 6 5 3 3 3
4 3 3 4 4 3 3 2 2 3 3 3 3 3 4 3 1 1 2 2 2 2 2 2 2 2 3 3 3 2 2 2 2 1 1 1 1 2 2 2 1 1 1 1 1 1 1 2 2 2 2 1 1 1 0 1 1 3 5 5 5 6 6 6 7 8 6 5 6 4 3 4 3 1
4 4 5 5 5 3 4 3 2 3 3 2 3 4 4 3 3 2 3 3 2 3 2 2 2 3 3 4 3 4 4 3 2 2 1 1 1 1 1 1 1 1 2 2 2 2 2 3 4 3 3 3 3 1 0 2 1 1 4 7 5 6 7 7 7 7 6 5 5 3 3 1 2 2
5 5 5 5 4 3 3 2 3 3 3 4 4 4 4 4 4 4 4 4 3 3 3 3 3 3 3 3 3 3 3 4 3 3 3 2 3 3 2 2 2 1 2 3 3 3 4 5 5 5 5 4 0 1 0 1 1 1 1 3 6 7 6 6 6 6 6 5 4 5 5 3 5 2
5 5 6 5 4 4 4 4 3 3 4 4 4 4 4 4 4 5 5 4 4 4 3 3 3 4 3 3 4 4 4 3 3 3 3 3 3 4 3 3 2 2 2 3 4 4 4 4 4 4 3 1 2 2 1 2 2 1 1 3 5 7 7 9 6 6 5 5 6 6 5 5 5 3
5 6 5 4 5 4 4 4 3 3 4 4 4 4 4 4 5 5 4 6 4 4 3 4 4 4 4 3 3 3 4 4 3 3 3 3 3 3 4 4 4 3 4 4 4 4 1 1 2 3 4 3 3 4 3 3 2 1 1 1 3 6 6 9 10 8 6 6 6 6 4 3 2 4
6 5 5 5 5 4 4 4 4 4 4 4 4 4 4 4 3 4 4 5 5 5 5 4 4 4 4 4 4 4 4 4 4 4 3 4 4 3 4 4 4 4 4 4 3 2 2 2 2 3 4 4 4 4 4 3 3 2 2 2 2 4 5 7 8 8 7 9 11 8 7 5 5 4
6 6 6 5 5 5 5 5 4 4 4 4 4 3 4 4 4 4 4 5 5 5 5 4 4 4 5 4 4 4 5 5 4 4 5 4 4 4 4 4 4 4 4 4 3 3 2 2 3 4 5 5 4 4 5 4 4 4 3 2 2 3 5 5 5 5 5 7 11 11 11 11 9 3
6 7 6 6 6 6 6 5 5 5 5 4 4 4 4 4 5 4 4 4 5 5 5 5 5 5 5 4 5 5 6 4 4 5 5 5 5 5 5 5 4 5 5 5 4 4 3 3 3 4 6 5 5 5 5 5 5 3 4 4 4 4 4 4 6 7 7 7 11 15 13 12 12 13
Wind_Direction
215 223 212 217 232 233 229 238 235 228 223 227 225 212 202 167 190 272 295 275 260 270 215 264 218 205 203 202 197 195 204 200 199 191 173 177 188 197 207 205 204 208 219 266 277 265 253 250 249 242 239 240 240 238 240 241 243 242 239 236 237 241 240 230 227 211 216 222 227 231 235 241 246 250
207 223 234 230 243 245 241 246 251 241 232 231 223 222 219 174 201 197 231 278 226 264 256 229 243 200 212 204 205 211 206 200 197 180 177 181 198 203 209 209 207 209 205 229 250 242 246 252 250 247 242 237 237 239 241 242 248 245 249 247 247 241 253 258 183 214 222 220 226 229 233 236 239 243
196 214 236 239 250 250 255 262 263 264 240 234 228 236 212 217 216 199 182 261 279 207 258 252 243 237 210 199 199 210 216 200 200 186 181 193 195 200 208 208 213 214 209 215 232 230 235 247 253 253 249 244 240 243 245 244 246 244 246 250 256 282 286 180 182 203 222 226 223 221 219 228 235 244
197 208 231 238 245 251 251 256 256 258 251 238 230 217 214 227 226 200 201 223 262 224 246 254 263 233 223 211 208 214 219 201 206 189 194 191 188 202 206 207 215 214 214 212 212 199 226 244 257 253 253 252 247 242 239 250 255 255 257 259 259 243 245 203 193 201 224 227 235 243 245 248 249 252
203 208 228 242 247 249 254 251 258 248 248 245 235 223 211 228 214 199 203 231 261 286 252 263 258 239 204 223 222 216 212 211 207 203 193 185 198 199 201 203 208 214 211 210 211 215 220 231 255 267 250 245 249 256 253 249 251 256 253 251 255 227 209 198 185 196 207 221 224 229 234 238 245 251
208 205 219 237 246 242 239 254 252 243 243 240 248 231 214 224 222 200 201 225 238 265 295 270 253 252 208 243 210 218 212 215 203 198 187 194 198 199 199 205 210 205 212 209 209 211 221 235 240 254 265 252 244 231 245 244 89 241 57 59 39 182 185 190 192 192 202 213 220 222 230 236 245 248
206 212 217 235 232 228 260 254 268 273 257 240 245 252 229 228 229 205 207 204 228 244 270 279 283 243 219 229 240 225 228 222 205 208 203 193 194 206 202 209 218 203 211 211 213 210 208 219 229 212 200 203 168 176 170 126 118 107 102 83 71 60 145 197 199 199 204 207 219 227 234 242 246 255
214 218 223 234 235 195 243 245 237 230 241 235 236 247 242 233 242 227 206 211 221 227 242 276 246 284 217 232 247 238 222 194 196 210 206 199 206 203 204 211 219 200 207 210 210 207 203 205 201 191 179 166 154 145 138 138 132 127 121 116 92 84 84 27 312 282 259 251 259 282 296 298 296 289
220 219 226 234 224 196 227 230 227 228 231 236 237 240 239 234 237 236 212 209 214 221 228 256 289 246 230 230 227 199 169 154 165 164 196 200 211 218 215 214 217 213 207 212 210 207 206 207 202 195 184 171 160 156 151 153 152 148 140 134 129 116 93 45 357 231 249 258 261 274 281 284 289 292
227 222 219 225 217 226 230 240 239 235 241 239 239 239 241 243 237 233 234 244 233 218 226 231 209 223 220 218 217 201 195 181 188 206 212 209 211 218 226 227 216 199 195 205 201 207 217 217 217 208 196 183 170 166 159 161 162 156 152 151 153 156 161 178 218 236 251 264 275 273 268 267 264 265
232 222 224 225 219 224 225 227 231 238 239 234 239 236 244 243 227 214 216 207 226 222 222 209 220 214 221 223 227 212 207 213 212 204 208 227 220 221 226 230 221 204 210 211 200 217 215 205 212 200 201 191 183 173 166 173 174 174 174 179 177 184 193 206 219 235 242 243 243 245 248 247 249 253
241 230 226 225 224 224 219 214 220 224 245 235 253 247 243 242 242 226 225 229 236 233 219 215 213 211 221 213 189 131 196 214 232 224 219 233 232 228 227 233 228 214 220 222 217 194 194 205 208 205 206 198 184 174 166 177 191 190 187 189 196 200 207 209 213 219 228 238 250 260 265 267 262 259
244 230 231 231 235 231 237 227 239 236 233 226 250 262 247 249 238 220 231 253 271 283 296 272 236 235 229 229 213 227 222 224 246 204 210 236 246 239 241 244 225 219 214 228 229 224 215 217 221 221 225 213 188 185 179 191 198 194 181 190 201 214 216 220 225 232 237 241 251 261 264 266 275 278
240 234 232 240 245 251 250 250 257 267 266 262 258 258 271 231 194 208 247 270 273 282 267 256 244 245 247 237 222 230 237 239 224 193 204 233 246 239 254 269 246 208 213 227 234 237 220 223 233 227 235 228 203 215 202 198 177 180 181 187 199 211 223 223 224 232 246 250 248 257 265 262 256 248
247 245 247 255 263 265 263 255 252 251 260 253 251 251 241 237 221 256 250 244 242 246 247 260 246 244 258 252 218 222 232 207 217 232 224 233 219 232 250 278 287 187 209 218 240 246 214 215 235 234 236 234 219 211 200 159 172 170 176 177 179 188 203 206 205 221 228 234 241 245 255 252 244 244
251 275 272 266 266 257 247 253 254 267 260 251 245 251 160 248 247 217 229 244 233 222 235 247 247 247 252 263 232 245 243 251 242 237 225 225 229 238 240 246 265 172 190 206 227 256 163 199 229 246 242 230 229 215 155 162 166 168 165 167 172 178 186 188 201 219 233 236 220 216 235 244 255 256
245 247 266 281 285 268 270 272 255 221 254 267 242 212 229 236 234 241 239 239 245 253 256 256 263 257 262 263 256 208 215 198 227 222 234 233 234 240 247 248 250 187 188 199 223 249 215 173 210 236 235 199 167 91 96 118 159 158 163 174 182 180 171 180 200 217 229 230 212 218 243 280 277 278
229 232 249 260 251 256 264 236 221 182 220 216 236 194 197 229 245 220 208 228 250 251 252 257 262 271 260 265 278 258 203 216 244 227 242 230 236 240 244 261 260 170 171 189 193 240 202 188 199 229 166 91 76 74 100 151 125 118 123 156 207 193 174 185 211 221 232 219 200 229 304 2 29 44
207 227 218 225 238 234 210 203 197 191 198 187 195 205 203 213 228 250 241 234 239 243 243 249 256 263 266 268 274 271 245 244 248 232 251 223 238 246 257 261 218 194 192 193 181 254 181 165 204 167 90 89 81 81 65 51 57 64 60 43 338 354 37 258 245 231 133 129 146 126 119 106 87 76
239 246 252 251 252 221 205 214 255 229 162 169 202 222 242 234 221 218 190 3 326 289 274 260 259 259 258 267 270 271 256 254 266 274 263 254 231 233 248 266 240 233 190 198 200 234 219 171 187 89 59 79 76 56 62 53 64 84 105 127 321 220 171 208 189 166 165 143 130 127 119 107 98 93
299 295 278 274 225 186 188 225 318 283 179 171 183 200 204 227 275 239 289 335 319 320 317 311 314 307 301 299 298 303 293 262 244 233 253 255 242 239 260 265 253 242 176 205 209 225 245 140 125 95 64 77 68 30 37 45 51 79 136 173 218 283 160 188 155 163 157 138 137 134 125 118 112 106
259 313 242 147 161 150 137 9 329 329 177 156 170 174 200 282 313 304 340 321 327 337 318 335 328 308 311 295 291 273 240 228 231 219 235 236 207 250 249 276 285 107 187 215 185 176 128 98 86 106 116 87 43 38 35 52 53 53 52 14 31 112 147 125 151 161 158 149 146 137 129 123 117 107
256 344 20 102 109 116 97 45 18 20 78 124 109 145 185 254 268 294 329 323 329 340 344 337 345 340 350 351 329 322 289 219 222 218 229 219 235 251 256 259 287 294 253 319 159 205 150 122 131 135 138 141 339 1 35 37 56 36 358 26 49 70 105 132 147 158 153 151 144 136 133 131 122 118
207 166 112 77 75 90 101 96 81 51 51 120 134 148 200 244 273 306 318 308 293 302 307 303 299 296 307 312 296 226 48 48 52 55 60 240 233 245 252 241 230 270 339 295 179 205 112 163 147 176 138 152 243 267 351 16 41 67 77 68 69 74 97 104 89 100 140 141 134 132 133 134 131 126
202 182 162 142 124 119 112 97 80 77 55 99 150 173 224 232 309 288 285 289 308 302 296 295 300 290 296 282 166 106 78 79 70 67 60 62 58 57 60 49 57 189 102 19 299 154 121 149 138 132 53 55 110 144 240 300 336 79 128 122 116 119 120 119 123 115 99 99 107 110 108 112 111 127
200 179 142 142 115 118 112 89 77 77 98 150 201 184 338 339 331 290 287 287 289 289 284 286 284 274 252 210 141 99 88 82 81 74 67 64 70 67 68 65 53 23 39 7 340 175 122 191 168 149 153 132 151 152 148 232 249 359 122 136 147 158 152 136 133 131 132 131 120 115 107 94 88 81
187 137 138 127 132 128 107 108 96 122 281 253 188 265 273 276 273 275 259 257 255 255 256 250 249 250 243 211 138 102 81 86 84 74 69 67 76 78 74 80 81 76 359 337 340 256 189 148 163 163 164 156 133 174 194 192 222 176 142 139 149 152 149 152 147 145 140 130 116 101 91 83 81 77
218 184 196 183 139 145 165 203 210 264 260 228 250 258 257 252 254 268 287 288 277 265 252 254 236 244 223 156 131 118 103 101 98 88 79 77 80 89 86 68 68 68 68 33 354 324 173 145 163 186 139 158 163 177 199 191 145 171 162 151 147 163 168 166 155 153 150 144 137 136 129 132 125 109
272 238 180 141 174 182 204 235 255 233 227 239 256 257 262 263 239 269 287 315 321 306 298 276 257 239 198 99 94 103 112 111 99 104 105 94 88 92 85 79 67 54 37 24 30 4 138 142 151 139 145 169 180 172 161 163 169 175 175 153 164 196 192 186 166 161 158 152 139 147 146 141 145 137
265 209 197 187 196 207 211 191 186 197 237 239 213 179 157 86 46 36 22 8 337 318 309 346 4 11 97 87 99 107 111 103 105 121 124 127 110 105 108 94 66 51 40 30 20 11 4 132 144 145 139 153 184 155 148 142 169 173 179 184 164 152 188 180 173 171 169 171 153 150 142 152 149 158
265 245 228 233 239 244 219 240 252 272 323 26 66 37 31 55 46 32 41 38 17 7 15 29 45 53 69 93 105 104 87 78 81 79 91 89 103 100 97 96 76 40 40 33 29 26 16 75 107 155 151 150 137 154 164 157 139 165 187 178 168 175 181 178 181 182 170 130 127 116 131 143 157 164
285 286 266 234 226 198 190 200 242 3 327 200 147 73 28 45 52 37 49 72 54 51 47 64 64 57 55 66 91 86 67 76 48 30 68 68 114 85 130 139 119 116 53 25 21 25 43 47 70 61 61 152 148 132 115 130 145 165 173 180 191 158 162 173 171 153 125 128 117 141 170 182 181 162
281 274 269 226 197 239 225 342 329 266 237 231 332 111 26 12 358 36 56 41 37 38 42 64 86 111 114 97 78 90 97 83 96 124 141 140 137 100 51 46 96 162 129 86 41 40 35 55 45 61 73 68 100 138 142 140 178 180 179 179 188 173 174 179 175 160 150 153 172 176 183 195 199 181
258 263 262 265 237 237 251 222 249 229 219 224 227 232 192 213 20 197 60 53 40 24 1 358 357 25 26 46 65 84 87 98 80 65 42 47 32 45 26 154 137 139 151 134 83 57 64 60 71 55 57 65 69 62 73 119 163 189 185 180 184 178 176 180 182 164 168 181 167 166 185 205 207 209
230 252 245 240 236 239 243 239 240 221 221 226 231 228 195 226 218 217 215 155 133 85 312 292 358 8 12 9 18 23 34 33 40 52 43 56 83 101 152 135 133 134 125 98 114 134 117 96 88 88 81 85 106 98 63 31 152 159 165 183 197 190 184 185 183 171 180 163 165 170 185 201 211 209
255 244 249 243 227 220 235 244 241 220 220 222 226 229 226 231 222 216 215 176 149 160 197 205 169 134 110 73 61 49 45 49 51 52 62 56 64 51 48 61 89 105 98 101 130 151 157 152 151 133 78 66 56 1 121 41 34 174 174 190 194 200 188 177 187 159 170 181 185 188 198 207 206 185
254 242 239 247 238 217 239 240 234 236 226 220 217 218 231 235 213 209 195 164 150 163 183 163 206 169 149 161 150 128 126 140 150 135 108 117 76 57 50 50 61 101 106 125 156 167 179 182 186 183 152 124 13 333 349 125 340 279 229 203 190 195 188 181 183 184 197 195 194 205 216 210 218 185
239 235 237 242 240 236 243 245 237 241 234 226 223 222 231 238 220 186 161 180 181 170 177 196 187 186 182 175 171 172 166 160 157 170 196 176 126 88 63 42 8 344 353 118 171 220 217 213 209 205 209 240 247 246 49 116 216 193 202 212 202 189 180 174 195 207 204 202 214 211 216 238 242 250
228 238 237 236 232 221 229 232 225 240 238 229 226 226 228 225 213 188 189 204 190 186 187 198 205 201 189 189 186 177 182 185 200 210 219 235 196 153 167 193 252 288 298 303 274 252 241 245 234 220 218 202 208 144 344 317 275 22 172 198 208 180 193 188 202 207 206 197 209 192 219 256 25 74
220 223 235 237 238 219 233 236 242 236 241 233 232 228 220 219 204 200 197 199 191 190 197 208 202 200 206 199 195 191 193 195 192 195 207 217 219 223 213 224 252 260 277 280 276 261 248 243 234 225 215 225 335 103 308 293 306 271 192 192 220 201 188 191 197 195 198 201 177 190 211 201 232 214
216 220 230 225 234 230 229 228 227 239 243 240 235 230 224 217 202 206 200 191 183 183 197 202 203 210 214 199 199 198 208 205 207 208 209 232 231 234 209 211 240 229 244 263 263 262 252 244 250 243 247 243 133 135 197 216 228 187 217 192 199 239 214 190 197 194 203 173 177 195 204 207 223 215
202 218 224 216 219 223 214 230 225 229 243 236 233 226 220 209 218 197 190 191 187 191 199 204 205 208 217 211 205 204 223 227 221 209 208 206 213 227 216 223 246 228 228 244 236 238 250 316 270 212 197 185 190 218 236 238 252 262 243 194 193 196 220 223 214 205 200 173 178 183 186 186 196 234
205 210 219 218 216 217 211 219 224 226 245 237 232 223 219 219 201 196 198 191 187 190 200 203 202 206 213 209 205 211 223 232 228 229 221 215 212 208 213 219 216 212 219 242 233 227 243 240 218 204 195 207 216 220 245 234 235 242 231 217 199 193 203 209 229 230 225 199 193 195 187 182 165 209
209 209 215 209 214 215 212 212 219 219 229 236 233 216 213 215 209 208 202 200 192 201 200 201 200 206 211 208 199 210 223 233 224 228 234 226 217 221 227 218 208 213 218 236 238 226 206 209 206 212 217 220 211 220 236 233 237 227 232 227 183 188 206 204 204 213 230 237 232 227 212 206 216 261
209 212 212 209 210 215 214 211 212 214 219 227 227 221 213 213 225 216 208 208 211 210 203 205 206 210 212 200 200 219 225 211 223 233 234 239 230 221 221 223 218 213 219 212 224 235 205 208 197 207 236 243 234 235 249 244 252 249 229 212 219 204 208 186 200 212 221 236 213 214 227 229 235 244